When you browse on this site, cookies collect data to enhance your experience and personalize the content and advertising you see.
Visit our Privacy Policy to learn more. By continuing to use the site, you agree to this use of cookies and data.
  • Em Portugal
  • Lista de países
  • Para 7 dias
  • Temperatura da água
  • Mapas de satélite
  • Mapa do tempo
  • Widgets de tempo
  • user-avatar
    Iniciar Sessão

    Previsão horária em As-Salt

    Hoje, 17 Julho, Quarta-feira

    Tempo Temperatura Precipitação Vento Pressão Humidade
    00:00 +24°C° 0 mm 1 m/s 708 mmHg 45%
    01:00 +23°C° 0 mm 1 m/s 707 mmHg 44%
    02:00 +23°C° 0 mm 1 m/s 707 mmHg 43%
    03:00 +23°C° 0 mm 1 m/s 707 mmHg 42%
    04:00 +23°C° 0 mm 1 m/s 707 mmHg 42%
    05:00 +24°C° 0 mm 1 m/s 706 mmHg 41%
    06:00 +26°C° 0 mm 2 m/s 707 mmHg 36%
    07:00 +29°C° 0 mm 2 m/s 707 mmHg 31%
    08:00 +33°C° 0 mm 3 m/s 707 mmHg 26%
    09:00 +35°C° 0 mm 4 m/s 708 mmHg 23%
    10:00 +37°C° 0 mm 5 m/s 708 mmHg 21%
    11:00 +40°C° 0 mm 6 m/s 708 mmHg 18%
    12:00 +41°C° 0 mm 7 m/s 708 mmHg 18%
    13:00 +43°C° 0 mm 9 m/s 708 mmHg 17%
    14:00 +44°C° 0 mm 10 m/s 708 mmHg 17%
    15:00 +42°C° 0 mm 9 m/s 708 mmHg 19%
    16:00 +39°C° 0 mm 8 m/s 708 mmHg 22%
    17:00 +38°C° 0 mm 7 m/s 708 mmHg 24%
    18:00 +34°C° 0 mm 5 m/s 708 mmHg 31%
    19:00 +30°C° 0 mm 3 m/s 708 mmHg 37%
    20:00 +27°C° 0 mm 1 m/s 707 mmHg 43%
    21:00 +27°C° 0 mm 1 m/s 708 mmHg 47%
    22:00 +26°C° 0 mm 1 m/s 708 mmHg 51%
    23:00 +25°C° 0 mm 1 m/s 708 mmHg 55%

    Amanhã, 18 Julho, Quinta-feira

    Tempo Temperatura Precipitação Vento Pressão Humidade
    00:00 +25°C° 0 mm 1 m/s 708 mmHg 57%
    01:00 +24°C° 0 mm 1 m/s 707 mmHg 59%
    02:00 +24°C° 0 mm 2 m/s 707 mmHg 61%
    03:00 +24°C° 0 mm 2 m/s 707 mmHg 64%
    04:00 +23°C° 0 mm 1 m/s 708 mmHg 67%
    05:00 +23°C° 0 mm 1 m/s 708 mmHg 70%
    06:00 +25°C° 0 mm 2 m/s 708 mmHg 59%
    07:00 +27°C° 0 mm 3 m/s 709 mmHg 49%
    08:00 +29°C° 0 mm 4 m/s 709 mmHg 39%
    09:00 +32°C° 0 mm 4 m/s 709 mmHg 36%
    10:00 +33°C° 0 mm 5 m/s 709 mmHg 33%
    11:00 +34°C° 0 mm 5 m/s 709 mmHg 30%
    12:00 +35°C° 0 mm 7 m/s 709 mmHg 28%
    13:00 +37°C° 0 mm 8 m/s 709 mmHg 27%
    14:00 +37°C° 0 mm 9 m/s 709 mmHg 25%
    15:00 +35°C° 0 mm 9 m/s 709 mmHg 27%
    16:00 +33°C° 0 mm 8 m/s 709 mmHg 30%
    17:00 +32°C° 0 mm 8 m/s 709 mmHg 32%
    18:00 +28°C° 0 mm 6 m/s 709 mmHg 42%
    19:00 +26°C° 0 mm 4 m/s 709 mmHg 52%
    20:00 +23°C° 0 mm 2 m/s 709 mmHg 62%
    21:00 +23°C° 0 mm 2 m/s 709 mmHg 66%
    22:00 +21°C° 0 mm 2 m/s 709 mmHg 71%
    23:00 +20°C° 0 mm 2 m/s 709 mmHg 75%

    Depois de amanhã, 19 Julho, Sexta-feira

    Tempo Temperatura Precipitação Vento Pressão Humidade
    00:00 +21°C° 0 mm 1 m/s 709 mmHg 79%
    01:00 +20°C° 0 mm 1 m/s 709 mmHg 83%
    02:00 +20°C° 0 mm 1 m/s 709 mmHg 87%
    03:00 +20°C° 0 mm 1 m/s 709 mmHg 88%
    04:00 +20°C° 0 mm 1 m/s 709 mmHg 89%
    05:00 +19°C° 0 mm 1 m/s 709 mmHg 91%
    06:00 +21°C° 0 mm 1 m/s 710 mmHg 81%
    07:00 +23°C° 0 mm 2 m/s 710 mmHg 72%
    08:00 +25°C° 0 mm 2 m/s 711 mmHg 63%
    09:00 +27°C° 0 mm 3 m/s 711 mmHg 55%
    10:00 +28°C° 0 mm 3 m/s 711 mmHg 47%
    11:00 +30°C° 0 mm 3 m/s 711 mmHg 39%
    12:00 +31°C° 0 mm 3 m/s 710 mmHg 36%
    13:00 +33°C° 0 mm 4 m/s 710 mmHg 33%
    14:00 +34°C° 0 mm 4 m/s 710 mmHg 30%
    15:00 +34°C° 0 mm 5 m/s 710 mmHg 32%
    16:00 +33°C° 0 mm 6 m/s 710 mmHg 35%
    17:00 +32°C° 0 mm 6 m/s 709 mmHg 37%
    18:00 +28°C° 0 mm 5 m/s 709 mmHg 46%
    19:00 +26°C° 0 mm 4 m/s 709 mmHg 55%
    20:00 +23°C° 0 mm 2 m/s 710 mmHg 64%
    21:00 +21°C° 0 mm 2 m/s 709 mmHg 67%
    22:00 +21°C° 0 mm 1 m/s 709 mmHg 70%
    23:00 +20°C° 0 mm 1 m/s 709 mmHg 73%

    20 Julho, Sábado

    Tempo Temperatura Precipitação Vento Pressão Humidade
    00:00 +20°C° 0 mm 1 m/s 709 mmHg 73%
    01:00 +20°C° 0 mm 1 m/s 709 mmHg 72%
    02:00 +20°C° 0 mm 1 m/s 709 mmHg 72%
    03:00 +19°C° 0 mm 1 m/s 709 mmHg 74%
    04:00 +19°C° 0 mm 1 m/s 709 mmHg 76%
    05:00 +19°C° 0 mm 1 m/s 709 mmHg 78%
    06:00 +21°C° 0 mm 1 m/s 709 mmHg 70%
    07:00 +23°C° 0 mm 2 m/s 710 mmHg 62%
    08:00 +25°C° 0 mm 2 m/s 710 mmHg 54%
    09:00 +27°C° 0 mm 2 m/s 710 mmHg 49%
    10:00 +29°C° 0 mm 3 m/s 710 mmHg 43%
    11:00 +30°C° 0 mm 3 m/s 710 mmHg 37%
    12:00 +32°C° 0 mm 4 m/s 710 mmHg 34%
    13:00 +34°C° 0 mm 4 m/s 710 mmHg 31%
    14:00 +35°C° 0 mm 4 m/s 710 mmHg 28%
    15:00 +34°C° 0 mm 5 m/s 710 mmHg 32%
    16:00 +33°C° 0 mm 5 m/s 710 mmHg 36%
    17:00 +32°C° 0 mm 6 m/s 710 mmHg 41%
    18:00 +29°C° 0 mm 5 m/s 710 mmHg 51%
    19:00 +26°C° 0 mm 3 m/s 710 mmHg 62%
    20:00 +24°C° 0 mm 2 m/s 710 mmHg 72%
    21:00 +23°C° 0 mm 2 m/s 710 mmHg 75%
    22:00 +21°C° 0 mm 2 m/s 710 mmHg 79%
    23:00 +21°C° 0 mm 1 m/s 709 mmHg 82%

    21 Julho, Domingo

    Tempo Temperatura Precipitação Vento Pressão Humidade
    00:00 +21°C° 0 mm 1 m/s 709 mmHg 83%
    01:00 +20°C° 0 mm 1 m/s 709 mmHg 84%
    02:00 +20°C° 0 mm 1 m/s 709 mmHg 86%
    03:00 +20°C° 0 mm 1 m/s 709 mmHg 87%
    04:00 +20°C° 0 mm 1 m/s 709 mmHg 88%
    05:00 +19°C° 0 mm 1 m/s 709 mmHg 89%
    06:00 +21°C° 0 mm 1 m/s 709 mmHg 80%
    07:00 +24°C° 0 mm 1 m/s 709 mmHg 70%
    08:00 +26°C° 0 mm 2 m/s 710 mmHg 60%
    09:00 +28°C° 0 mm 2 m/s 710 mmHg 52%
    10:00 +30°C° 0 mm 2 m/s 710 mmHg 44%
    11:00 +32°C° 0 mm 2 m/s 710 mmHg 36%
    12:00 +34°C° 0 mm 3 m/s 710 mmHg 32%
    13:00 +36°C° 0 mm 3 m/s 710 mmHg 27%
    14:00 +37°C° 0 mm 3 m/s 709 mmHg 22%
    15:00 +36°C° 0 mm 4 m/s 709 mmHg 27%
    16:00 +35°C° 0 mm 5 m/s 709 mmHg 31%
    17:00 +35°C° 0 mm 5 m/s 709 mmHg 35%
    18:00 +32°C° 0 mm 4 m/s 709 mmHg 45%
    19:00 +28°C° 0 mm 3 m/s 709 mmHg 54%
    20:00 +25°C° 0 mm 2 m/s 709 mmHg 64%
    21:00 +24°C° 0 mm 2 m/s 709 mmHg 65%
    22:00 +24°C° 0 mm 1 m/s 708 mmHg 66%
    23:00 +23°C° 0 mm 1 m/s 708 mmHg 67%

    22 Julho, Segunda-feira

    Tempo Temperatura Precipitação Vento Pressão Humidade
    00:00 +23°C° 0 mm 1 m/s 708 mmHg 68%
    01:00 +22°C° 0 mm 1 m/s 708 mmHg 69%
    02:00 +22°C° 0 mm 1 m/s 708 mmHg 69%
    03:00 +21°C° 0 mm 1 m/s 708 mmHg 71%
    04:00 +21°C° 0 mm 1 m/s 708 mmHg 73%
    05:00 +21°C° 0 mm 1 m/s 708 mmHg 75%
    06:00 +23°C° 0 mm 1 m/s 708 mmHg 67%
    07:00 +25°C° 0 mm 1 m/s 709 mmHg 58%
    08:00 +28°C° 0 mm 1 m/s 709 mmHg 50%
    09:00 +30°C° 0 mm 2 m/s 709 mmHg 43%
    10:00 +34°C° 0 mm 2 m/s 709 mmHg 35%
    11:00 +36°C° 0 mm 3 m/s 709 mmHg 28%
    12:00 +38°C° 0 mm 3 m/s 709 mmHg 24%
    13:00 +39°C° 0 mm 3 m/s 709 mmHg 21%
    14:00 +42°C° 0 mm 3 m/s 708 mmHg 17%
    15:00 +41°C° 0 mm 4 m/s 708 mmHg 21%
    16:00 +40°C° 0 mm 5 m/s 707 mmHg 25%
    17:00 +39°C° 0 mm 6 m/s 707 mmHg 29%
    18:00 +34°C° 0 mm 5 m/s 707 mmHg 37%
    19:00 +30°C° 0 mm 3 m/s 707 mmHg 46%
    20:00 +27°C° 0 mm 2 m/s 707 mmHg 54%
    21:00 +26°C° 0 mm 2 m/s 707 mmHg 56%
    22:00 +26°C° 0 mm 2 m/s 707 mmHg 58%
    23:00 +25°C° 0 mm 1 m/s 707 mmHg 61%
    Mostrar mais